| time (UTC) | temp F | wind direction | speed MPH | gust MPH | rain 1hr in | rain 24hr in | rain mn in | humidity % | barometer mb |
| 20260509224322 | 55 | 315 | 8.0 | 21.0 | 0.00 | 0.00 | 0.00 | 20 | 1010.6 |
| 20260509223753 | 55 | 258 | 8.0 | 21.0 | 0.00 | 0.00 | 0.00 | 19 | 1010.5 |
| 20260509223522 | 55 | 318 | 8.0 | 28.0 | 0.00 | 0.00 | 0.00 | 19 | 1010.5 |
| 20260509222725 | 55 | 305 | 8.0 | 28.0 | 0.00 | 0.00 | 0.00 | 20 | 1010.3 |
| 20260509222205 | 55 | 355 | 8.0 | 19.0 | 0.00 | 0.00 | 0.00 | 21 | 1010.4 |
| 20260509222127 | 54 | 255 | 10.0 | 21.0 | 0.00 | 0.00 | 0.00 | 21 | 1010.2 |
| 20260509221123 | 54 | 355 | 9.0 | 21.0 | 0.00 | 0.00 | 0.00 | 20 | 1010.3 |
| 20260509220621 | 55 | 282 | 7.0 | 20.0 | 0.00 | 0.00 | 0.00 | 20 | 1010.0 |
| 20260509220054 | 54 | 0 | 7.0 | 20.0 | 0.00 | 0.00 | 0.00 | 19 | 1010.0 |
| 20260509215549 | 55 | 355 | 7.0 | 23.0 | 0.00 | 0.00 | 0.00 | 19 | 1010.2 |
| 20260509215317 | 55 | 340 | 8.0 | 23.0 | 0.00 | 0.00 | 0.00 | 21 | 1010.1 |
| 20260509214542 | 54 | 300 | 7.0 | 17.0 | 0.00 | 0.00 | 0.00 | 20 | 1010.0 |
| 20260509214039 | 54 | 246 | 6.0 | 16.0 | 0.00 | 0.00 | 0.00 | 21 | 1010.0 |
| 20260509213539 | 54 | 139 | 6.0 | 16.0 | 0.00 | 0.00 | 0.00 | 20 | 1010.0 |
| 20260509213243 | 54 | 96 | 6.0 | 13.0 | 0.00 | 0.00 | 0.00 | 21 | 1009.9 |
| 20260509212508 | 54 | 66 | 6.0 | 17.0 | 0.00 | 0.00 | 0.00 | 21 | 1009.9 |
| 20260509211942 | 54 | 24 | 6.0 | 17.0 | 0.00 | 0.00 | 0.00 | 21 | 1009.9 |
| 20260509211439 | 55 | 5 | 6.0 | 17.0 | 0.00 | 0.00 | 0.00 | 20 | 1009.8 |
| 20260509211150 | 54 | 265 | 4.0 | 17.0 | 0.00 | 0.00 | 0.00 | 20 | 1009.9 |
| 20260509210416 | 54 | 355 | 4.0 | 12.0 | 0.00 | 0.00 | 0.00 | 21 | 1009.7 |
| 20260509205905 | 54 | 124 | 5.0 | 15.0 | 0.00 | 0.00 | 0.00 | 22 | 1009.8 |
| 20260509205405 | 54 | 259 | 5.0 | 15.0 | 0.00 | 0.00 | 0.00 | 21 | 1009.7 |
| 20260509204907 | 54 | 19 | 5.0 | 15.0 | 0.00 | 0.00 | 0.00 | 21 | 1009.8 |
| 20260509204341 | 55 | 37 | 5.0 | 13.0 | 0.00 | 0.00 | 0.00 | 21 | 1009.8 |
| 20260509203838 | 55 | 114 | 5.0 | 13.0 | 0.00 | 0.00 | 0.00 | 22 | 1009.7 |
| 20260509203337 | 54 | 101 | 7.0 | 12.0 | 0.00 | 0.00 | 0.00 | 21 | 1009.8 |
| 20260509203052 | 54 | 0 | 8.0 | 26.0 | 0.00 | 0.00 | 0.00 | 22 | 1009.6 |
| 20260509202319 | 54 | 270 | 8.0 | 26.0 | 0.00 | 0.00 | 0.00 | 21 | 1009.5 |
| 20260509202049 | 54 | 238 | 9.0 | 18.0 | 0.00 | 0.00 | 0.00 | 22 | 1009.6 |
| 20260509201253 | 54 | 327 | 8.0 | 18.0 | 0.00 | 0.00 | 0.00 | 21 | 1009.7 |
| 20260509200733 | 54 | 282 | 7.0 | 17.0 | 0.00 | 0.00 | 0.00 | 22 | 1009.6 |
| 20260509200234 | 53 | 264 | 8.0 | 17.0 | 0.00 | 0.00 | 0.00 | 23 | 1009.6 |
| 20260509195718 | 53 | 0 | 7.0 | 21.0 | 0.00 | 0.00 | 0.00 | 22 | 1009.5 |
| 20260509195159 | 53 | 323 | 8.0 | 21.0 | 0.00 | 0.00 | 0.00 | 21 | 1009.4 |
| 20260509194905 | 54 | 281 | 7.0 | 21.0 | 0.00 | 0.00 | 0.00 | 22 | 1009.5 |
| 20260509194119 | 53 | 40 | 6.0 | 19.0 | 0.00 | 0.00 | 0.00 | 22 | 1009.4 |
| 20260509193553 | 53 | 281 | 6.0 | 14.0 | 0.00 | 0.00 | 0.00 | 22 | 1009.5 |
| 20260509193303 | 53 | 276 | 6.0 | 17.0 | 0.00 | 0.00 | 0.00 | 23 | 1009.4 |
| 20260509192511 | 52 | 49 | 7.0 | 17.0 | 0.00 | 0.00 | 0.00 | 24 | 1009.3 |
| 20260509192212 | 52 | 15 | 6.0 | 15.0 | 0.00 | 0.00 | 0.00 | 22 | 1009.4 |
| 20260509191422 | 52 | 256 | 8.0 | 18.0 | 0.00 | 0.00 | 0.00 | 23 | 1009.3 |
| 20260509191131 | 52 | 332 | 8.0 | 19.0 | 0.00 | 0.00 | 0.00 | 22 | 1009.2 |
| 20260509190338 | 53 | 24 | 7.0 | 15.0 | 0.00 | 0.00 | 0.00 | 22 | 1009.2 |
| 20260509185835 | 53 | 39 | 6.0 | 15.0 | 0.00 | 0.00 | 0.00 | 23 | 1009.2 |
| 20260509185606 | 53 | 79 | 5.0 | 22.0 | 0.00 | 0.00 | 0.00 | 25 | 1009.1 |
| 20260509184815 | 52 | 311 | 9.0 | 22.0 | 0.00 | 0.00 | 0.00 | 22 | 1009.0 |
| 20260509184248 | 52 | 25 | 12.0 | 25.0 | 0.00 | 0.00 | 0.00 | 22 | 1009.1 |
| 20260509183748 | 52 | 213 | 10.0 | 25.0 | 0.00 | 0.00 | 0.00 | 22 | 1009.2 |
| 20260509183246 | 52 | 57 | 8.0 | 25.0 | 0.00 | 0.00 | 0.00 | 22 | 1009.1 |
| 20260509182742 | 52 | 306 | 8.0 | 25.0 | 0.00 | 0.00 | 0.00 | 23 | 1009.2 |
| 20260509182241 | 52 | 336 | 7.0 | 16.0 | 0.00 | 0.00 | 0.00 | 23 | 1009.2 |
| 20260509181737 | 51 | 355 | 7.0 | 17.0 | 0.00 | 0.00 | 0.00 | 24 | 1008.9 |
| 20260509181211 | 52 | 330 | 8.0 | 23.0 | 0.00 | 0.00 | 0.00 | 24 | 1009.2 |
| 20260509180710 | 51 | 32 | 7.0 | 23.0 | 0.00 | 0.00 | 0.00 | 23 | 1009.0 |
| 20260509180142 | 51 | 0 | 5.0 | 16.0 | 0.00 | 0.00 | 0.00 | 25 | 1008.9 |
| 20260509175911 | 51 | 15 | 7.0 | 19.0 | 0.00 | 0.00 | 0.00 | 26 | 1008.9 |
| 20260509175135 | 51 | 30 | 8.0 | 19.0 | 0.00 | 0.00 | 0.00 | 24 | 1008.9 |
| 20260509174632 | 51 | 9 | 8.0 | 20.0 | 0.00 | 0.00 | 0.00 | 24 | 1008.8 |
| 20260509174338 | 51 | 109 | 8.0 | 25.0 | 0.00 | 0.00 | 0.00 | 24 | 1008.6 |
| 20260509173546 | 51 | 40 | 8.0 | 21.0 | 0.00 | 0.00 | 0.00 | 25 | 1008.6 |
| 20260509173021 | 51 | 306 | 7.0 | 21.0 | 0.00 | 0.00 | 0.00 | 26 | 1008.8 |
| 20260509172454 | 51 | 299 | 8.0 | 21.0 | 0.00 | 0.00 | 0.00 | 25 | 1008.7 |
| 20260509171950 | 51 | 215 | 8.0 | 21.0 | 0.00 | 0.00 | 0.00 | 26 | 1008.6 |
| 20260509171447 | 51 | 38 | 7.0 | 21.0 | 0.00 | 0.00 | 0.00 | 27 | 1008.3 |
| 20260509170922 | 51 | 234 | 8.0 | 21.0 | 0.00 | 0.00 | 0.00 | 27 | 1008.3 |
| 20260509170414 | 50 | 311 | 9.0 | 27.0 | 0.00 | 0.00 | 0.00 | 27 | 1008.3 |
| 20260509170140 | 50 | 324 | 9.0 | 27.0 | 0.00 | 0.00 | 0.00 | 27 | 1008.3 |
| 20260509165343 | 50 | 275 | 9.0 | 19.0 | 0.00 | 0.00 | 0.00 | 26 | 1008.2 |
| 20260509164838 | 50 | 350 | 9.0 | 23.0 | 0.00 | 0.00 | 0.00 | 27 | 1008.0 |
| 20260509164313 | 50 | 29 | 9.0 | 20.0 | 0.00 | 0.00 | 0.00 | 26 | 1008.0 |
| 20260509163807 | 50 | 115 | 9.0 | 22.0 | 0.00 | 0.00 | 0.00 | 27 | 1007.8 |
| 20260509163304 | 51 | 31 | 7.0 | 22.0 | 0.00 | 0.00 | 0.00 | 26 | 1007.8 |
| 20260509163032 | 51 | 192 | 7.0 | 21.0 | 0.00 | 0.00 | 0.00 | 29 | 1007.7 |
| 20260509162258 | 50 | 287 | 7.0 | 21.0 | 0.00 | 0.00 | 0.00 | 26 | 1007.4 |
| 20260509161756 | 50 | 15 | 9.0 | 29.0 | 0.00 | 0.00 | 0.00 | 26 | 1007.7 |
| 20260509161231 | 50 | 284 | 7.0 | 26.0 | 0.00 | 0.00 | 0.00 | 26 | 1007.4 |
| 20260509160724 | 51 | 261 | 6.0 | 20.0 | 0.00 | 0.00 | 0.00 | 27 | 1007.4 |
| 20260509160452 | 50 | 12 | 7.0 | 20.0 | 0.00 | 0.00 | 0.00 | 27 | 1007.4 |
| 20260509155718 | 50 | 54 | 7.0 | 17.0 | 0.00 | 0.00 | 0.00 | 28 | 1007.6 |
| 20260509155216 | 50 | 46 | 8.0 | 19.0 | 0.00 | 0.00 | 0.00 | 28 | 1007.6 |
| 20260509154648 | 49 | 293 | 9.0 | 20.0 | 0.00 | 0.00 | 0.00 | 29 | 1007.3 |
| 20260509154146 | 49 | 229 | 9.0 | 20.0 | 0.00 | 0.00 | 0.00 | 29 | 1007.1 |
| 20260509153853 | 49 | 313 | 9.0 | 19.0 | 0.00 | 0.00 | 0.00 | 30 | 1007.1 |
| 20260509153617 | 49 | 288 | 9.0 | 20.0 | 0.00 | 0.00 | 0.00 | 31 | 1007.0 |
| 20260509152820 | 49 | 268 | 8.0 | 21.0 | 0.00 | 0.00 | 0.00 | 30 | 1007.0 |
| 20260509152044 | 50 | 355 | 6.0 | 21.0 | 0.00 | 0.00 | 0.00 | 30 | 1006.9 |
| 20260509151542 | 50 | 317 | 5.0 | 19.0 | 0.00 | 0.00 | 0.00 | 30 | 1006.7 |
| 20260509151038 | 50 | 16 | 8.0 | 18.0 | 0.00 | 0.00 | 0.00 | 29 | 1006.7 |
| 20260509150536 | 49 | 80 | 10.0 | 19.0 | 0.00 | 0.00 | 0.00 | 30 | 1006.7 |
| 20260509150008 | 49 | 299 | 8.0 | 19.0 | 0.00 | 0.00 | 0.00 | 30 | 1006.6 |
| 20260509145505 | 49 | 51 | 6.0 | 17.0 | 0.00 | 0.00 | 0.00 | 29 | 1006.5 |
| 20260509145002 | 50 | 351 | 6.0 | 17.0 | 0.00 | 0.00 | 0.00 | 30 | 1006.3 |
| 20260509144436 | 49 | 53 | 7.0 | 23.0 | 0.00 | 0.00 | 0.00 | 30 | 1006.3 |
| 20260509143908 | 49 | 222 | 7.0 | 23.0 | 0.00 | 0.00 | 0.00 | 30 | 1006.4 |
| 20260509143638 | 49 | 286 | 9.0 | 18.0 | 0.00 | 0.00 | 0.00 | 31 | 1006.3 |
| 20260509143112 | 48 | 288 | 9.0 | 21.0 | 0.00 | 0.00 | 0.00 | 30 | 1006.3 |
| 20260509142336 | 48 | 196 | 8.0 | 21.0 | 0.00 | 0.00 | 0.00 | 31 | 1006.2 |
| 20260509141836 | 48 | 240 | 7.0 | 21.0 | 0.00 | 0.00 | 0.00 | 30 | 1006.1 |
| 20260509141306 | 48 | 318 | 6.0 | 18.0 | 0.00 | 0.00 | 0.00 | 29 | 1006.1 |
| 20260509140738 | 48 | 313 | 8.0 | 19.0 | 0.00 | 0.00 | 0.00 | 29 | 1006.0 |
| 20260509140235 | 48 | 254 | 8.0 | 19.0 | 0.00 | 0.00 | 0.00 | 29 | 1006.0 |
| 20260509135709 | 48 | 42 | 9.0 | 20.0 | 0.00 | 0.00 | 0.00 | 29 | 1005.8 |
| 20260509135143 | 48 | 315 | 7.0 | 20.0 | 0.00 | 0.00 | 0.00 | 28 | 1005.7 |
| 20260509134631 | 49 | 336 | 6.0 | 17.0 | 0.00 | 0.00 | 0.00 | 28 | 1005.6 |
| 20260509134134 | 48 | 265 | 7.0 | 30.0 | 0.00 | 0.00 | 0.00 | 28 | 1005.5 |
| 20260509133607 | 48 | 271 | 8.0 | 30.0 | 0.00 | 0.00 | 0.00 | 28 | 1005.5 |
| 20260509133041 | 48 | 279 | 7.0 | 17.0 | 0.00 | 0.00 | 0.00 | 28 | 1005.2 |
| 20260509132810 | 48 | 277 | 7.0 | 18.0 | 0.00 | 0.00 | 0.00 | 28 | 1005.1 |
| 20260509132307 | 48 | 313 | 5.0 | 18.0 | 0.00 | 0.00 | 0.00 | 28 | 1005.2 |
| 20260509131508 | 48 | 317 | 6.0 | 17.0 | 0.00 | 0.00 | 0.00 | 28 | 1005.1 |
| 20260509131008 | 47 | 298 | 7.0 | 17.0 | 0.00 | 0.00 | 0.00 | 28 | 1004.9 |
| 20260509130443 | 47 | 273 | 6.0 | 18.0 | 0.00 | 0.00 | 0.00 | 28 | 1005.0 |
| 20260509130210 | 47 | 340 | 5.0 | 18.0 | 0.00 | 0.00 | 0.00 | 28 | 1004.8 |
| 20260509125415 | 47 | 355 | 4.0 | 12.0 | 0.00 | 0.00 | 0.00 | 28 | 1004.9 |
| 20260509124913 | 46 | 106 | 4.0 | 9.0 | 0.00 | 0.00 | 0.00 | 29 | 1004.7 |
| 20260509124415 | 46 | 90 | 5.0 | 10.0 | 0.00 | 0.00 | 0.00 | 29 | 1004.7 |
| 20260509123857 | 46 | 261 | 5.0 | 14.0 | 0.00 | 0.00 | 0.00 | 30 | 1004.6 |
| 20260509123359 | 46 | 285 | 4.0 | 10.0 | 0.00 | 0.00 | 0.00 | 30 | 1004.5 |
| 20260509122840 | 46 | 319 | 4.0 | 10.0 | 0.00 | 0.00 | 0.00 | 30 | 1004.5 |
| 20260509122343 | 46 | 314 | 4.0 | 12.0 | 0.00 | 0.00 | 0.00 | 30 | 1004.6 |
| 20260509121820 | 46 | 5 | 4.0 | 12.0 | 0.00 | 0.00 | 0.00 | 30 | 1004.5 |
| 20260509121321 | 46 | 270 | 4.0 | 11.0 | 0.00 | 0.00 | 0.00 | 30 | 1004.5 |
| 20260509120756 | 46 | 355 | 4.0 | 11.0 | 0.00 | 0.00 | 0.00 | 30 | 1004.5 |
| 20260509120233 | 46 | 27 | 4.0 | 14.0 | 0.00 | 0.00 | 0.00 | 29 | 1004.3 |
| 20260509115732 | 46 | 58 | 3.0 | 14.0 | 0.00 | 0.00 | 0.00 | 29 | 1004.3 |
| 20260509115216 | 46 | 88 | 3.0 | 8.0 | 0.00 | 0.00 | 0.00 | 30 | 1004.3 |
| 20260509114700 | 46 | 322 | 3.0 | 12.0 | 0.00 | 0.00 | 0.00 | 29 | 1004.2 |
| 20260509114134 | 46 | 293 | 3.0 | 12.0 | 0.00 | 0.00 | 0.00 | 29 | 1004.1 |
| 20260509113905 | 46 | 32 | 3.0 | 10.0 | 0.00 | 0.00 | 0.00 | 29 | 1003.9 |
| 20260509113113 | 46 | 149 | 3.0 | 10.0 | 0.00 | 0.00 | 0.00 | 29 | 1004.0 |
| 20260509112558 | 47 | 111 | 5.0 | 14.0 | 0.00 | 0.00 | 0.00 | 28 | 1004.0 |
| 20260509112058 | 47 | 69 | 4.0 | 14.0 | 0.00 | 0.00 | 0.00 | 29 | 1003.9 |
| 20260509111548 | 47 | 341 | 2.0 | 6.0 | 0.00 | 0.00 | 0.00 | 28 | 1003.7 |
| 20260509111541 | 47 | 289 | 2.0 | 8.0 | 0.00 | 0.00 | 0.00 | 28 | 1003.8 |
| 20260509111040 | 47 | 98 | 2.0 | 4.0 | 0.00 | 0.00 | 0.00 | 28 | 1003.8 |
| 20260509110024 | 47 | 30 | 2.0 | 6.0 | 0.00 | 0.00 | 0.00 | 28 | 1003.5 |
| 20260509105522 | 47 | 248 | 1.0 | 6.0 | 0.00 | 0.00 | 0.00 | 28 | 1003.2 |
| 20260509105004 | 47 | 294 | 1.0 | 8.0 | 0.00 | 0.00 | 0.00 | 29 | 1003.1 |
| 20260509104504 | 47 | 340 | 3.0 | 8.0 | 0.00 | 0.00 | 0.00 | 28 | 1003.0 |
| 20260509103941 | 47 | 302 | 2.0 | 6.0 | 0.00 | 0.00 | 0.00 | 28 | 1002.8 |
| 20260509103422 | 47 | 296 | 1.0 | 4.0 | 0.00 | 0.00 | 0.00 | 28 | 1002.8 |
| 20260509103154 | 48 | 267 | 2.0 | 7.0 | 0.00 | 0.00 | 0.00 | 28 | 1002.7 |
| 20260509103039 | 48 | 292 | 2.0 | 7.0 | 0.00 | 0.00 | 0.00 | 27 | 1002.8 |
| 20260509101920 | 48 | 247 | 1.0 | 7.0 | 0.00 | 0.00 | 0.00 | 28 | 1002.8 |
| 20260509101422 | 48 | 271 | 2.0 | 7.0 | 0.00 | 0.00 | 0.00 | 28 | 1002.7 |
| 20260509100904 | 48 | 309 | 2.0 | 7.0 | 0.00 | 0.00 | 0.00 | 28 | 1002.7 |
| 20260509100343 | 48 | 328 | 2.0 | 9.0 | 0.00 | 0.00 | 0.00 | 28 | 1002.7 |
| 20260509095820 | 48 | 5 | 1.0 | 9.0 | 0.00 | 0.00 | 0.00 | 28 | 1002.7 |
| 20260509095255 | 48 | 355 | 2.0 | 8.0 | 0.00 | 0.00 | 0.00 | 28 | 1002.6 |
| 20260509094734 | 48 | 214 | 2.0 | 8.0 | 0.00 | 0.00 | 0.00 | 28 | 1002.5 |
| 20260509094203 | 48 | 297 | 2.0 | 8.0 | 0.00 | 0.00 | 0.00 | 28 | 1002.6 |
| 20260509093636 | 49 | 348 | 2.0 | 7.0 | 0.00 | 0.00 | 0.00 | 29 | 1002.5 |
| 20260509093111 | 49 | 256 | 2.0 | 4.0 | 0.00 | 0.00 | 0.00 | 29 | 1002.5 |
| 20260509092607 | 49 | 248 | 2.0 | 7.0 | 0.00 | 0.00 | 0.00 | 29 | 1002.6 |
| 20260509092106 | 49 | 265 | 2.0 | 7.0 | 0.00 | 0.00 | 0.00 | 30 | 1002.6 |
| 20260509091602 | 49 | 294 | 1.0 | 7.0 | 0.00 | 0.00 | 0.00 | 30 | 1002.6 |
| 20260509091037 | 49 | 296 | 1.0 | 4.0 | 0.00 | 0.00 | 0.00 | 30 | 1002.4 |
| 20260509090510 | 49 | 297 | 2.0 | 5.0 | 0.00 | 0.00 | 0.00 | 31 | 1002.3 |
| 20260509090008 | 49 | 61 | 2.0 | 4.0 | 0.00 | 0.00 | 0.00 | 31 | 1002.3 |
| 20260509085452 | 49 | 138 | 2.0 | 4.0 | 0.00 | 0.00 | 0.00 | 31 | 1002.3 |
| 20260509084952 | 49 | 284 | 2.0 | 5.0 | 0.00 | 0.00 | 0.00 | 31 | 1002.2 |
| 20260509084449 | 49 | 9 | 2.0 | 7.0 | 0.00 | 0.00 | 0.00 | 31 | 1002.1 |
| 20260509083947 | 50 | 305 | 3.0 | 7.0 | 0.00 | 0.00 | 0.00 | 31 | 1002.1 |
| 20260509083420 | 50 | 281 | 2.0 | 6.0 | 0.00 | 0.00 | 0.00 | 31 | 1002.2 |
| 20260509082917 | 50 | 258 | 2.0 | 9.0 | 0.00 | 0.00 | 0.00 | 31 | 1002.2 |
| 20260509082351 | 50 | 14 | 4.0 | 9.0 | 0.00 | 0.00 | 0.00 | 31 | 1002.2 |
| 20260509081825 | 50 | 284 | 3.0 | 8.0 | 0.00 | 0.00 | 0.00 | 31 | 1002.2 |
| 20260509081323 | 50 | 245 | 3.0 | 7.0 | 0.00 | 0.00 | 0.00 | 31 | 1002.1 |
| 20260509080820 | 50 | 325 | 3.0 | 8.0 | 0.00 | 0.00 | 0.00 | 32 | 1002.0 |
| 20260509080317 | 49 | 309 | 2.0 | 8.0 | 0.00 | 0.00 | 0.00 | 32 | 1002.0 |
| 20260509075813 | 49 | 288 | 2.0 | 6.0 | 0.00 | 0.00 | 0.00 | 33 | 1002.0 |
| 20260509075245 | 49 | 252 | 2.0 | 4.0 | 0.00 | 0.00 | 0.00 | 33 | 1002.0 |
| 20260509074723 | 50 | 292 | 2.0 | 3.0 | 0.00 | 0.00 | 0.00 | 34 | 1001.8 |
| 20260509074717 | 50 | 262 | 1.0 | 3.0 | 0.00 | 0.00 | 0.00 | 33 | 1001.9 |
| 20260509073713 | 50 | 293 | 2.0 | 4.0 | 0.00 | 0.00 | 0.00 | 33 | 1001.7 |
| 20260509073417 | 50 | 282 | 1.0 | 3.0 | 0.00 | 0.00 | 0.00 | 33 | 1001.8 |
| 20260509072619 | 50 | 315 | 1.0 | 2.0 | 0.00 | 0.00 | 0.00 | 32 | 1001.8 |
| 20260509072348 | 51 | 316 | 1.0 | 4.0 | 0.00 | 0.00 | 0.00 | 31 | 1001.8 |
| 20260509071551 | 51 | 317 | 1.0 | 4.0 | 0.00 | 0.00 | 0.00 | 30 | 1001.8 |
| 20260509071023 | 51 | 317 | 2.0 | 5.0 | 0.00 | 0.00 | 0.00 | 30 | 1001.9 |
| 20260509070521 | 51 | 269 | 2.0 | 5.0 | 0.00 | 0.00 | 0.00 | 29 | 1001.9 |
| 20260509070226 | 51 | 284 | 2.0 | 4.0 | 0.00 | 0.00 | 0.00 | 29 | 1001.9 |
| 20260509065451 | 51 | 57 | 2.0 | 4.0 | 0.00 | 0.00 | 0.00 | 29 | 1001.9 |
| 20260509064924 | 51 | 44 | 1.0 | 8.0 | 0.00 | 0.00 | 0.00 | 31 | 1002.1 |
| 20260509064629 | 51 | 334 | 1.0 | 3.0 | 0.00 | 0.00 | 0.00 | 32 | 1002.2 |
| 20260509063854 | 51 | 76 | 1.0 | 6.0 | 0.00 | 0.00 | 0.00 | 32 | 1002.2 |
| 20260509063831 | 51 | 76 | 1.0 | 6.0 | 0.00 | 0.00 | 0.00 | 33 | 1002.3 |
| 20260509062802 | 51 | 188 | 2.0 | 4.0 | 0.00 | 0.00 | 0.00 | 33 | 1002.5 |
| 20260509062258 | 51 | 56 | 2.0 | 6.0 | 0.00 | 0.00 | 0.00 | 33 | 1002.4 |
| 20260509062003 | 51 | 331 | 2.0 | 6.0 | 0.00 | 0.00 | 0.00 | 33 | 1002.5 |
| 20260509061229 | 51 | 285 | 1.0 | 4.0 | 0.00 | 0.00 | 0.00 | 33 | 1002.4 |
| 20260509060701 | 51 | 355 | 1.0 | 4.0 | 0.00 | 0.00 | 0.00 | 33 | 1002.2 |
| 20260509060159 | 51 | 318 | 1.0 | 4.0 | 0.00 | 0.00 | 0.00 | 34 | 1002.2 |
| 20260509055631 | 51 | 303 | 0.0 | 4.0 | 0.00 | 0.00 | 0.00 | 35 | 1002.3 |
| 20260509055106 | 50 | 304 | 1.0 | 3.0 | 0.00 | 0.00 | 0.00 | 36 | 1002.1 |
| 20260509054539 | 50 | 296 | 1.0 | 3.0 | 0.00 | 0.00 | 0.00 | 36 | 1002.2 |
| 20260509054037 | 49 | 296 | 1.0 | 4.0 | 0.00 | 0.00 | 0.00 | 38 | 1002.1 |
| 20260509053510 | 49 | 296 | 1.0 | 4.0 | 0.00 | 0.00 | 0.00 | 38 | 1002.2 |
| 20260509053007 | 49 | 296 | 1.0 | 3.0 | 0.00 | 0.00 | 0.00 | 38 | 1002.0 |
| 20260509052439 | 49 | 296 | 1.0 | 3.0 | 0.00 | 0.00 | 0.00 | 39 | 1002.0 |
| 20260509051937 | 49 | 296 | 2.0 | 4.0 | 0.00 | 0.00 | 0.00 | 39 | 1001.8 |
| 20260509051410 | 49 | 296 | 2.0 | 4.0 | 0.00 | 0.00 | 0.00 | 38 | 1002.0 |
| 20260509050905 | 50 | 317 | 1.0 | 3.0 | 0.00 | 0.00 | 0.00 | 37 | 1001.8 |
| 20260509050402 | 50 | 317 | 1.0 | 3.0 | 0.00 | 0.00 | 0.00 | 36 | 1001.8 |
| 20260509045857 | 50 | 317 | 1.0 | 3.0 | 0.00 | 0.00 | 0.00 | 36 | 1001.9 |
| 20260509045355 | 50 | 321 | 1.0 | 3.0 | 0.00 | 0.00 | 0.00 | 36 | 1002.1 |
| 20260509044829 | 50 | 330 | 1.0 | 3.0 | 0.00 | 0.00 | 0.00 | 36 | 1002.1 |
| 20260509044322 | 50 | 331 | 0.0 | 1.0 | 0.00 | 0.00 | 0.00 | 36 | 1002.1 |
| 20260509043819 | 50 | 332 | 0.0 | 0.0 | 0.00 | 0.00 | 0.00 | 36 | 1002.2 |
| 20260509043252 | 50 | 333 | 0.0 | 0.0 | 0.00 | 0.00 | 0.00 | 37 | 1002.2 |
| 20260509042749 | 50 | 333 | 0.0 | 0.0 | 0.00 | 0.00 | 0.00 | 36 | 1002.2 |
| 20260509042221 | 50 | 333 | 0.0 | 0.0 | 0.00 | 0.00 | 0.00 | 36 | 1002.2 |
| 20260509041718 | 50 | 333 | 0.0 | 0.0 | 0.00 | 0.00 | 0.00 | 35 | 1002.2 |
| 20260509041153 | 51 | 334 | 0.0 | 0.0 | 0.00 | 0.00 | 0.00 | 33 | 1002.0 |
| 20260509040626 | 52 | 334 | 0.0 | 2.0 | 0.00 | 0.00 | 0.00 | 32 | 1002.1 |
| 20260509040122 | 53 | 334 | 0.0 | 2.0 | 0.00 | 0.00 | 0.00 | 32 | 1002.1 |
| 20260509035556 | 53 | 334 | 1.0 | 3.0 | 0.00 | 0.00 | 0.00 | 30 | 1002.0 |
| 20260509035029 | 54 | 334 | 1.0 | 3.0 | 0.00 | 0.00 | 0.00 | 29 | 1002.1 |
| 20260509034527 | 54 | 343 | 1.0 | 3.0 | 0.00 | 0.00 | 0.00 | 29 | 1002.1 |
| 20260509034000 | 55 | 345 | 1.0 | 3.0 | 0.00 | 0.00 | 0.00 | 28 | 1002.2 |
| 20260509033458 | 55 | 355 | 1.0 | 5.0 | 0.00 | 0.00 | 0.00 | 28 | 1002.1 |
| 20260509032951 | 55 | 0 | 1.0 | 5.0 | 0.00 | 0.00 | 0.00 | 28 | 1001.9 |
| 20260509032449 | 56 | 333 | 1.0 | 3.0 | 0.00 | 0.00 | 0.00 | 28 | 1001.8 |
| 20260509031923 | 56 | 338 | 1.0 | 3.0 | 0.00 | 0.00 | 0.00 | 27 | 1001.9 |
| 20260509031356 | 56 | 340 | 1.0 | 3.0 | 0.00 | 0.00 | 0.00 | 26 | 1001.9 |
| 20260509030851 | 57 | 339 | 1.0 | 3.0 | 0.00 | 0.00 | 0.00 | 26 | 1001.8 |
| 20260509030327 | 57 | 126 | 1.0 | 3.0 | 0.00 | 0.00 | 0.00 | 26 | 1001.9 |
| 20260509030055 | 57 | 355 | 2.0 | 5.0 | 0.00 | 0.00 | 0.00 | 26 | 1001.8 |
| 20260509025320 | 58 | 21 | 3.0 | 10.0 | 0.00 | 0.00 | 0.00 | 25 | 1001.8 |
| 20260509024753 | 58 | 25 | 2.0 | 10.0 | 0.00 | 0.00 | 0.00 | 25 | 1001.8 |
| 20260509024227 | 58 | 101 | 2.0 | 11.0 | 0.00 | 0.00 | 0.00 | 24 | 1001.7 |
| 20260509023702 | 59 | 275 | 3.0 | 11.0 | 0.00 | 0.00 | 0.00 | 24 | 1001.8 |
| 20260509023158 | 59 | 96 | 5.0 | 12.0 | 0.00 | 0.00 | 0.00 | 24 | 1001.7 |
| 20260509022632 | 59 | 275 | 3.0 | 12.0 | 0.00 | 0.00 | 0.00 | 23 | 1001.7 |
| 20260509022341 | 59 | 277 | 4.0 | 12.0 | 0.00 | 0.00 | 0.00 | 23 | 1001.6 |
| 20260509021605 | 60 | 297 | 5.0 | 12.0 | 0.00 | 0.00 | 0.00 | 23 | 1001.5 |
| 20260509021106 | 59 | 216 | 4.0 | 10.0 | 0.00 | 0.00 | 0.00 | 23 | 1001.3 |
| 20260509020539 | 59 | 300 | 2.0 | 9.0 | 0.00 | 0.00 | 0.00 | 24 | 1001.3 |
| 20260509020246 | 58 | 310 | 1.0 | 6.0 | 0.00 | 0.00 | 0.00 | 25 | 1001.1 |
| 20260509015513 | 59 | 265 | 1.0 | 5.0 | 0.00 | 0.00 | 0.00 | 25 | 1001.1 |
| 20260509014946 | 59 | 260 | 0.0 | 5.0 | 0.00 | 0.00 | 0.00 | 24 | 1000.9 |
| 20260509014443 | 60 | 250 | 0.0 | 2.0 | 0.00 | 0.00 | 0.00 | 24 | 1000.9 |
| 20260509013919 | 60 | 251 | 0.0 | 2.0 | 0.00 | 0.00 | 0.00 | 23 | 1000.8 |
| 20260509013414 | 60 | 251 | 1.0 | 5.0 | 0.00 | 0.00 | 0.00 | 22 | 1000.8 |
| 20260509012911 | 61 | 250 | 2.0 | 5.0 | 0.00 | 0.00 | 0.00 | 22 | 1000.8 |
| 20260509012614 | 61 | 259 | 4.0 | 9.0 | 0.00 | 0.00 | 0.00 | 21 | 1000.8 |
| 20260509012114 | 61 | 252 | 4.0 | 9.0 | 0.00 | 0.00 | 0.00 | 21 | 1000.7 |
| 20260509011325 | 62 | 296 | 4.0 | 9.0 | 0.00 | 0.00 | 0.00 | 20 | 1000.8 |
| 20260509010826 | 62 | 33 | 5.0 | 11.0 | 0.00 | 0.00 | 0.00 | 20 | 1000.7 |
| 20260509010300 | 62 | 273 | 4.0 | 13.0 | 0.00 | 0.00 | 0.00 | 19 | 1000.8 |
| 20260509005757 | 62 | 300 | 4.0 | 12.0 | 0.00 | 0.00 | 0.00 | 18 | 1000.8 |
| 20260509005240 | 63 | 329 | 4.0 | 12.0 | 0.00 | 0.00 | 0.00 | 16 | 1000.8 |
| 20260509004738 | 63 | 269 | 3.0 | 8.0 | 0.00 | 0.00 | 0.00 | 16 | 1000.7 |
| 20260509004238 | 63 | 250 | 2.0 | 8.0 | 0.00 | 0.00 | 0.00 | 16 | 1000.6 |
| 20260509003720 | 63 | 267 | 2.0 | 7.0 | 0.00 | 0.00 | 0.00 | 15 | 1000.6 |
| 20260509003202 | 63 | 248 | 3.0 | 8.0 | 0.00 | 0.00 | 0.00 | 15 | 1000.5 |
| 20260509002641 | 64 | 218 | 2.0 | 8.0 | 0.00 | 0.00 | 0.00 | 14 | 1000.6 |
| 20260509002123 | 64 | 270 | 3.0 | 8.0 | 0.00 | 0.00 | 0.00 | 15 | 1000.6 |
| 20260509001611 | 64 | 277 | 3.0 | 8.0 | 0.00 | 0.00 | 0.00 | 14 | 1000.6 |
| 20260509001107 | 64 | 292 | 4.0 | 13.0 | 0.00 | 0.00 | 0.00 | 15 | 1000.7 |
| 20260509000610 | 64 | 294 | 5.0 | 13.0 | 0.00 | 0.00 | 0.00 | 14 | 1000.7 |
| 20260509000048 | 64 | 190 | 4.0 | 10.0 | 0.00 | 0.00 | 0.00 | 14 | 1000.7 |
| 20260508235524 | 64 | 294 | 2.0 | 11.0 | 0.00 | 0.00 | 0.00 | 15 | 1000.7 |
| 20260508235000 | 64 | 313 | 3.0 | 11.0 | 0.00 | 0.00 | 0.00 | 15 | 1000.7 |
| 20260508234501 | 64 | 304 | 4.0 | 11.0 | 0.00 | 0.00 | 0.00 | 14 | 1000.8 |
| 20260508233959 | 64 | 332 | 4.0 | 11.0 | 0.00 | 0.00 | 0.00 | 14 | 1000.8 |
| 20260508233501 | 64 | 294 | 6.0 | 13.0 | 0.00 | 0.00 | 0.00 | 14 | 1000.8 |
| 20260508232936 | 64 | 194 | 8.0 | 15.0 | 0.00 | 0.00 | 0.00 | 14 | 1000.8 |
| 20260508232435 | 64 | 225 | 8.0 | 17.0 | 0.00 | 0.00 | 0.00 | 14 | 1000.9 |
| 20260508232200 | 64 | 326 | 5.0 | 17.0 | 0.00 | 0.00 | 0.00 | 13 | 1000.9 |
| 20260508231816 | 64 | 275 | 5.0 | 11.0 | 0.00 | 0.00 | 0.00 | 15 | 1001.1 |
| 20260508231659 | 64 | 265 | 5.0 | 10.0 | 0.00 | 0.00 | 0.00 | 15 | 1001.1 |
| 20260508230633 | 64 | 280 | 5.0 | 11.0 | 0.00 | 0.00 | 0.00 | 15 | 1001.2 |
| 20260508225840 | 64 | 277 | 5.0 | 11.0 | 0.00 | 0.00 | 0.00 | 15 | 1001.2 |
| 20260508225315 | 64 | 0 | 4.0 | 12.0 | 0.00 | 0.00 | 0.00 | 15 | 1001.3 |